[[{"header":{"parameterUnit":"m.s-1","parameterCategory":1,"la1":30.2991,"la2":30.254,"lo1":-89.0895,"lo2":-89.0444,"dy":0.0017,"dx":0.0017,"nx":28,"ny":28,"refTime":"2025-12-05T03:00:00:Z","depth":0,"parameterNumber":2,"parameterNumberName":"U-component_of_WINDS"},"data":[0,0,0,0,0,0,0,0,0,0,0,0,0,0,0,0,0,0,0,0,0,0,0,0,0,0,0,0,0,0,0,0,0,0,0,0,0,0,0,0,0,0,0,0,0,0,0,0,0,0,0,0,0,0,0,0,0,0,0.1984,0.1983,0,0.19,0.1899,0.1898,0.1873,0.1873,0.1874,0.1874,0.1787,0.1784,0.1782,0,0,0,0,0,0,0,0,0,0,0,0,0,0.2122,0.212,0.1984,0.1983,0.1982,0.19,0.1899,0.1898,0.1873,0.1874,0.1874,0.1875,0.1788,0.1785,0.1781,0,0,0,0,0,0,0,0,0,0,0,0,0,0.2053,0.2119,0.1984,0.196,0.1957,0.1901,0.1899,0.1898,0.1873,0.1874,0.1874,0.1875,0.1789,0.1785,0.1781,0.1743,0,0,0.1769,0.1767,0,0,0,0,0,0,0,0,0.2057,0.2048,0.1964,0.1961,0.1958,0.1898,0.1916,0.1846,0.1873,0.1905,0.1874,0.1875,0.1823,0.1816,0.1799,0.1739,0.1735,0.1768,0.1766,0.1764,0.1763,0,0,0,0,0,0,0,0.2062,0.2051,0.1951,0.1963,0.1959,0.1953,0.1944,0.1903,0.1861,0.1902,0.19,0.189,0.1822,0.1803,0.1797,0.1734,0.1768,0.1765,0.1762,0.1761,0.1639,0.1638,0,0,0,0,0,0,0.2071,0.2055,0.1954,0.1948,0.201,0.195,0.194,0.1916,0.1862,0.1854,0.189,0.189,0.181,0.1802,0.1794,0.1746,0.1764,0.176,0.1758,0.1639,0.1638,0.1638,0,0,0,0,0,0,0.2074,0.2062,0.1957,0.2001,0.1988,0.1947,0.1921,0.1914,0.1896,0.1853,0.1845,0.1879,0.181,0.18,0.1756,0.1742,0.1758,0.1755,0.164,0.1639,0.1638,0.1649,0,0,0,0,0,0,0.2078,0.2063,0.2048,0.2001,0.1985,0.1921,0.192,0.1912,0.1889,0.1888,0.184,0.1833,0.181,0.1762,0.1752,0.1737,0.1751,0.1641,0.164,0.1638,0.165,0.1648,0.1647,0,0,0,0,0,0.2083,0.2054,0.2048,0.2035,0.1966,0.192,0.1911,0.1885,0.1888,0.1873,0.1845,0.1834,0.1746,0.1758,0.1746,0.173,0.1642,0.164,0.1639,0.165,0.1649,0.1647,0,0,0,0,0,0,0.21,0.2048,0.204,0.1995,0.1962,0.1916,0.1895,0.1884,0.1849,0.1849,0.1819,0.1808,0.1767,0.1744,0.1759,0.169,0.1694,0.1689,0.1707,0.1705,0.1704,0.1709,0.1748,0,0,0,0,0,0.2099,0.2066,0.2022,0.1987,0.1971,0.1936,0.1915,0.1898,0.1863,0.1849,0.1818,0.1784,0.1748,0.1725,0.169,0.1647,0.1636,0.163,0.1629,0.1628,0.1624,0.16,0.1597,0.1632,0.1632,0.1632,0,0,0.2095,0.2062,0.2043,0.1989,0.1962,0.1929,0.1924,0.1889,0.1864,0.1843,0.18,0.1777,0.1737,0.1693,0.1672,0.1673,0.1613,0.1626,0.1625,0.1622,0.1598,0.1595,0.1592,0.1631,0.1631,0.1631,0,0,0.2071,0.2044,0.2011,0.1985,0.1944,0.1921,0.1913,0.1869,0.1853,0.1809,0.1793,0.1763,0.1703,0.1675,0.1653,0.1621,0.161,0.1611,0.1604,0.158,0.1578,0.1575,0.1563,0.156,0.1607,0.1607,0.1607,0,0.2072,0.2021,0.1996,0.1962,0.1939,0.192,0.1887,0.1862,0.1811,0.1795,0.1797,0.1721,0.1693,0.1643,0.1635,0.1618,0.1609,0.1615,0.158,0.1577,0.1574,0.1563,0.1559,0.1608,0.1608,0.1608,0.1607,0,0.2024,0.199,0.1968,0.1921,0.1895,0.1862,0.1832,0.1809,0.1795,0.1773,0.1729,0.1695,0.1653,0.164,0.1626,0.1588,0.159,0.1586,0.1588,0.1572,0.1561,0.1556,0.1608,0.1608,0.1608,0.1608,0,0,0.2007,0.1947,0.194,0.1918,0.1873,0.1845,0.1812,0.1771,0.1752,0.1719,0.1689,0.164,0.1636,0.1612,0.1594,0.1574,0.1551,0.1573,0.1571,0.157,0.1508,0.151,0.1505,0.1544,0.1543,0.1542,0.1511,0,0.1977,0.1916,0.1893,0.1843,0.1811,0.1793,0.1764,0.1733,0.1711,0.1681,0.1657,0.1622,0.1621,0.1605,0.1585,0.1558,0.1538,0.156,0.1516,0.1515,0.1526,0.1499,0.1501,0.1473,0.1506,0.1506,0.1505,0,0.1933,0.19,0.1847,0.1807,0.1792,0.1766,0.1728,0.1699,0.1664,0.165,0.1623,0.1607,0.1571,0.1577,0.1528,0.1544,0.1524,0.1509,0.1507,0.1501,0.1508,0.1492,0.1464,0.1459,0.1498,0.1498,0.1499,0,0.1926,0.1868,0.1829,0.1811,0.1763,0.1745,0.1724,0.1689,0.1667,0.1633,0.1618,0.1581,0.1561,0.1533,0.1508,0.1514,0.146,0.1464,0.1447,0.1448,0.1435,0.1436,0.1403,0.1425,0.1425,0.1425,0.1425,0,0.1894,0.1862,0.1825,0.1801,0.1765,0.1739,0.1704,0.1682,0.1652,0.1623,0.1606,0.1579,0.1549,0.1518,0.1499,0.1461,0.1451,0.1439,0.1434,0.144,0.1441,0.1426,0.1427,0.1424,0.1424,0.1424,0.1425,0,0.1879,0.1852,0.1809,0.1767,0.1756,0.1731,0.1695,0.1671,0.165,0.1614,0.1604,0.157,0.1534,0.1506,0.1459,0.1446,0.1405,0.14,0.1417,0.1414,0.1399,0.1401,0.1354,0.1346,0.1374,0.1374,0.1374,0,0.186,0.1835,0.1791,0.1771,0.175,0.1718,0.1695,0.167,0.1647,0.1606,0.1587,0.1549,0.1518,0.146,0.1431,0.1395,0.1389,0.1375,0.1383,0.139,0.1388,0.139,0.1387,0.1374,0.1373,0.1373,0.1373,0,0.1829,0.1817,0.1785,0.1749,0.1723,0.1693,0.1663,0.1648,0.1617,0.1592,0.1555,0.1531,0.1483,0.1446,0.1407,0.1386,0.1374,0.1371,0.1365,0.137,0.1381,0.1375,0.1413,0.1372,0.1372,0.1372,0.1372,0.1372,0.181,0.1788,0.1754,0.1719,0.1694,0.1667,0.1642,0.1619,0.1587,0.1547,0.1534,0.1495,0.1462,0.1409,0.1387,0.1357,0.1357,0.1348,0.1346,0.1344,0.1344,0.1387,0.135,0.135,0.135,0.135,0.135,0,0.1778,0.1756,0.1724,0.1683,0.1656,0.1649,0.1616,0.1594,0.156,0.153,0.15,0.1458,0.1422,0.1391,0.1354,0.1336,0.133,0.1327,0.1328,0.1323,0.1346,0.1355,0.1333,0.1333,0.1333,0.1333,0.1333,0.1333,0.1758,0.1719,0.1704,0.1654,0.1631,0.1594,0.1576,0.1551,0.1527,0.148,0.1451,0.1431,0.1401,0.1362,0.133,0.1321,0.1308,0.1307,0.1297,0.1319,0.1321,0.1323,0.1331,0.1304,0.1304,0.1276,0.1276,0.1276]},{"header":{"parameterUnit":"m.s-1","parameterCategory":1,"la1":30.2991,"la2":30.254,"lo1":-89.0895,"lo2":-89.0444,"dy":0.0017,"dx":0.0017,"nx":28,"ny":28,"refTime":"2025-12-05T03:00:00:Z","depth":0,"parameterNumber":3,"parameterNumberName":"V-component_of_WINDS"},"data":[0,0,0,0,0,0,0,0,0,0,0,0,0,0,0,0,0,0,0,0,0,0,0,0,0,0,0,0,0,0,0,0,0,0,0,0,0,0,0,0,0,0,0,0,0,0,0,0,0,0,0,0,0,0,0,0,0,0,-6.3826,-6.3827,0,-6.3936,-6.3937,-6.3939,-6.3882,-6.3879,-6.3876,-6.3874,-6.398,-6.3985,-6.3991,0,0,0,0,0,0,0,0,0,0,0,0,0,-6.3559,-6.3564,-6.3825,-6.3827,-6.3828,-6.3936,-6.3937,-6.3939,-6.3883,-6.3879,-6.3876,-6.3872,-6.3978,-6.3985,-6.3991,0,0,0,0,0,0,0,0,0,0,0,0,0,-6.3672,-6.3566,-6.3825,-6.3813,-6.3813,-6.3936,-6.3937,-6.3939,-6.3883,-6.3879,-6.3875,-6.3871,-6.3976,-6.3984,-6.3992,-6.413,0,0,-6.4018,-6.4021,0,0,0,0,0,0,0,0,-6.3666,-6.3682,-6.3814,-6.3814,-6.3815,-6.3891,-6.3882,-6.4003,-6.3884,-6.3857,-6.3873,-6.3868,-6.3953,-6.3963,-6.3993,-6.4135,-6.414,-6.4018,-6.4023,-6.4027,-6.4029,0,0,0,0,0,0,0,-6.3658,-6.3677,-6.3869,-6.3816,-6.3816,-6.38,-6.3812,-6.3905,-6.3928,-6.3859,-6.3855,-6.3869,-6.3953,-6.3986,-6.3995,-6.4142,-6.4018,-6.4025,-6.4031,-6.4034,-6.4402,-6.4407,0,0,0,0,0,0,-6.3652,-6.3671,-6.3865,-6.3872,-6.3728,-6.3809,-6.3821,-6.3871,-6.3927,-6.3931,-6.3873,-6.3866,-6.3973,-6.3986,-6.3999,-6.4165,-6.4027,-6.4035,-6.4039,-6.4398,-6.4404,-6.4409,0,0,0,0,0,0,-6.3646,-6.367,-6.3861,-6.3771,-6.3794,-6.3818,-6.3874,-6.3875,-6.3908,-6.3937,-6.394,-6.3903,-6.3971,-6.3987,-6.4099,-6.4168,-6.4038,-6.4046,-6.4392,-6.4399,-6.4406,-6.4498,0,0,0,0,0,0,-6.3639,-6.3668,-6.3723,-6.3773,-6.3799,-6.3961,-6.3878,-6.3881,-6.3923,-6.3916,-6.3966,-6.397,-6.3968,-6.4087,-6.4107,-6.4177,-6.4052,-6.4386,-6.4395,-6.4404,-6.4489,-6.4507,-6.4523,0,0,0,0,0,-6.363,-6.3742,-6.3726,-6.3749,-6.3868,-6.3965,-6.398,-6.3978,-6.3929,-6.3983,-6.4002,-6.3969,-6.4157,-6.4099,-6.4121,-6.4194,-6.4382,-6.4393,-6.4403,-6.4481,-6.4504,-6.4523,0,0,0,0,0,0,-6.3697,-6.3749,-6.3731,-6.3863,-6.3911,-6.3956,-6.4024,-6.4002,-6.4062,-6.4052,-6.4044,-6.4056,-6.4172,-6.4194,-6.4128,-6.4331,-6.4261,-6.4277,-6.4313,-6.4335,-6.4352,-6.4344,-6.4059,0,0,0,0,0,-6.3728,-6.3805,-6.3845,-6.3958,-6.3983,-6.4,-6.4042,-6.4036,-6.4084,-6.4103,-6.413,-6.4176,-6.4245,-6.4291,-6.4356,-6.4491,-6.4501,-6.4553,-6.457,-6.4584,-6.4598,-6.4671,-6.4694,-6.4444,-6.4444,-6.4444,0,0,-6.3792,-6.3829,-6.3878,-6.3973,-6.4009,-6.4087,-6.4017,-6.4102,-6.416,-6.4115,-6.4223,-6.4244,-6.4295,-6.4419,-6.4475,-6.444,-6.4669,-6.4598,-6.4609,-6.4615,-6.4684,-6.4708,-6.4729,-6.4452,-6.445,-6.4449,0,0,-6.3948,-6.3984,-6.4083,-6.4121,-6.4178,-6.4188,-6.4212,-6.426,-6.4274,-6.4382,-6.4351,-6.4417,-6.4537,-6.4575,-6.4609,-6.478,-6.4752,-6.4802,-6.4892,-6.4963,-6.4983,-6.5,-6.5061,-6.5083,-6.4815,-6.4815,-6.4816,0,-6.4019,-6.4138,-6.4136,-6.4225,-6.4267,-6.4233,-6.4332,-6.4368,-6.4442,-6.4471,-6.4432,-6.4582,-6.4613,-6.4746,-6.4788,-6.4817,-6.4843,-6.4796,-6.498,-6.4998,-6.5014,-6.5072,-6.5095,-6.4821,-6.482,-6.482,-6.4819,0,-6.4223,-6.4306,-6.4378,-6.4454,-6.4504,-6.4597,-6.4607,-6.4658,-6.4648,-6.4661,-6.4772,-6.4808,-6.4881,-6.4912,-6.4902,-6.5043,-6.502,-6.4981,-6.4911,-6.5044,-6.5098,-6.512,-6.4829,-6.4827,-6.4826,-6.4824,0,0,-6.4425,-6.4499,-6.4525,-6.4559,-6.4619,-6.4682,-6.4773,-6.4847,-6.489,-6.4942,-6.5017,-6.512,-6.5085,-6.5124,-6.5118,-6.518,-6.5314,-6.5133,-6.5134,-6.5166,-6.5472,-6.5501,-6.5527,-6.5295,-6.5299,-6.5303,-6.5467,0,-6.4585,-6.4748,-6.4749,-6.4898,-6.4974,-6.4942,-6.5021,-6.5066,-6.5081,-6.5146,-6.5161,-6.5235,-6.5182,-6.5206,-6.5266,-6.5285,-6.5375,-6.5273,-6.5364,-6.5367,-6.5353,-6.5555,-6.5587,-6.5741,-6.5489,-6.5492,-6.5495,0,-6.4795,-6.4857,-6.5014,-6.5064,-6.5096,-6.5167,-6.5235,-6.5298,-6.5347,-6.5353,-6.5398,-6.5382,-6.5473,-6.54,-6.5524,-6.5455,-6.5492,-6.5506,-6.5512,-6.5521,-6.5439,-6.557,-6.5789,-6.5813,-6.5528,-6.5526,-6.5523,0,-6.4927,-6.5049,-6.5159,-6.5189,-6.5249,-6.5301,-6.5328,-6.5372,-6.5417,-6.5475,-6.5503,-6.557,-6.5606,-6.5658,-6.5659,-6.5606,-6.5785,-6.5712,-6.5792,-6.5792,-6.5831,-6.5829,-6.606,-6.5854,-6.5854,-6.5854,-6.5853,0,-6.5106,-6.5204,-6.522,-6.5287,-6.5395,-6.5394,-6.55,-6.5522,-6.5562,-6.5632,-6.5608,-6.5674,-6.5672,-6.5738,-6.574,-6.5842,-6.5859,-6.5865,-6.5865,-6.5868,-6.5868,-6.5892,-6.5882,-6.586,-6.5858,-6.5857,-6.5856,0,-6.5272,-6.5287,-6.5405,-6.5453,-6.5468,-6.5545,-6.5585,-6.5649,-6.5662,-6.5751,-6.5771,-6.5791,-6.5868,-6.5875,-6.5963,-6.5964,-6.6089,-6.6076,-6.6073,-6.6071,-6.6151,-6.6143,-6.6407,-6.6441,-6.6213,-6.6215,-6.6217,0,-6.5386,-6.5461,-6.5518,-6.5565,-6.5596,-6.567,-6.5716,-6.5717,-6.5765,-6.5827,-6.5883,-6.5958,-6.6018,-6.6142,-6.6163,-6.623,-6.6219,-6.6307,-6.6229,-6.623,-6.622,-6.6216,-6.6224,-6.6322,-6.6324,-6.6326,-6.6328,0,-6.5587,-6.5591,-6.5659,-6.5731,-6.5787,-6.5842,-6.5894,-6.5933,-6.594,-6.5995,-6.6075,-6.6121,-6.6213,-6.6287,-6.6353,-6.6378,-6.6354,-6.6352,-6.6374,-6.6379,-6.6374,-6.6378,-6.6115,-6.6346,-6.6344,-6.6343,-6.6342,-6.6341,-6.5731,-6.5796,-6.5847,-6.5924,-6.5964,-6.6013,-6.6076,-6.6098,-6.6165,-6.6241,-6.6237,-6.6325,-6.6371,-6.6458,-6.6488,-6.6555,-6.6525,-6.6557,-6.6565,-6.6573,-6.6582,-6.6364,-6.6567,-6.6566,-6.6566,-6.6565,-6.6565,0,-6.5931,-6.5963,-6.6034,-6.6108,-6.6169,-6.6143,-6.6199,-6.625,-6.6329,-6.6375,-6.6436,-6.6527,-6.6599,-6.6626,-6.6696,-6.6745,-6.6735,-6.6763,-6.6759,-6.6765,-6.6604,-6.6578,-6.6769,-6.6769,-6.6769,-6.6769,-6.6769,-6.6769,-6.6042,-6.6152,-6.6162,-6.629,-6.632,-6.6408,-6.6442,-6.6487,-6.6524,-6.6628,-6.6689,-6.6707,-6.6745,-6.6818,-6.6882,-6.6888,-6.6915,-6.6947,-6.6948,-6.6797,-6.6777,-6.6757,-6.6733,-6.6953,-6.6953,-6.7104,-6.7106,-6.7107]}]]